GW3496 Weather Reports


time (UTC)temp
C
wind
direction
speed
KPH
gust
KPH
rain 1hr
cm
rain 24hr
cm
rain mn
cm
humidity
%
barometer
mb
20260901110035 23 181 0.0 0.0 0.00 0.00 0.00 90 1014.9
20260901104534 23 214 0.0 0.0 0.00 0.00 0.00 90 1014.7
20260901103037 23 214 0.0 0.0 0.00 0.00 0.00 90 1014.7
20260901101538 23 186 0.0 1.6 0.00 0.00 0.00 90 1014.7
20260901100037 24 121 0.0 0.0 0.00 0.00 0.00 90 1014.7
20260901094534 24 121 0.0 0.0 0.00 0.00 0.00 90 1014.7
20260901093041 24 226 0.0 0.0 0.00 0.00 0.00 90 1014.7
20260901091543 24 13 0.0 0.0 0.00 0.00 0.00 89 1014.7
20260901090035 24 174 0.0 0.0 0.00 0.00 0.00 88 1014.7
20260901084534 25 174 0.0 0.0 0.00 0.00 0.00 87 1014.7
20260901083039 25 174 0.0 0.0 0.00 0.00 0.00 87 1015.0
20260901081542 25 174 0.0 0.0 0.00 0.00 0.00 87 1015.0
20260901080038 25 201 0.0 0.0 0.00 0.00 0.00 87 1015.0
20260901074550 25 257 0.0 0.0 0.00 0.00 0.00 86 1015.2
20260901073038 25 257 0.0 0.0 0.00 0.00 0.00 86 1015.4
20260901071537 25 257 0.0 0.0 0.00 0.00 0.00 86 1015.2
20260901070042 25 273 0.0 6.4 0.00 0.00 0.00 86 1015.4
20260901064541 25 226 0.0 6.4 0.00 0.00 0.00 85 1015.4
20260901063043 25 200 0.0 6.4 0.00 0.00 0.00 85 1015.5
20260901061543 25 175 0.0 0.0 0.00 0.00 0.00 86 1015.7
20260901060044 25 221 0.0 6.4 0.00 0.00 0.00 86 1015.7
20260901054542 25 239 3.2 4.8 0.00 0.00 0.00 86 1015.9
20260901053050 25 248 1.6 6.4 0.00 0.00 0.00 86 1016.0
20260901051553 25 277 0.0 0.0 0.00 0.00 0.00 85 1016.2
20260901050048 26 277 0.0 0.0 0.00 0.00 0.00 85 1016.2
20260901044543 26 309 1.6 4.8 0.00 0.00 0.00 83 1016.4
20260901043042 26 238 3.2 6.4 0.00 0.00 0.00 82 1016.4
20260901041543 26 246 0.0 0.0 0.00 0.00 0.00 81 1016.4
20260901040108 27 146 0.0 0.0 0.00 0.00 0.00 80 1016.5
20260901034542 27 150 0.0 0.0 0.00 0.00 0.00 80 1016.5
20260901033053 27 176 0.0 0.0 0.00 0.00 0.00 79 1016.4
20260901031549 27 194 0.0 6.4 0.00 0.00 0.00 79 1016.3
20260901030046 27 138 0.0 6.4 0.00 0.00 0.00 77 1016.2
20260901024543 27 138 0.0 0.0 0.00 0.00 0.00 76 1016.2
20260901023053 27 166 0.0 0.0 0.00 0.00 0.00 76 1016.2
20260901021549 28 165 0.0 0.0 0.00 0.00 0.00 75 1016.5
20260901020050 28 153 3.2 6.4 0.00 0.00 0.00 74 1016.2
20260901014547 28 139 0.0 4.8 0.00 0.00 0.00 74 1016.3
20260901013107 28 169 0.0 0.0 0.00 0.00 0.00 74 1016.3
20260901011548 28 183 0.0 0.0 0.00 0.00 0.00 73 1016.0
20260901010048 28 107 0.0 0.0 0.00 0.00 0.00 73 1016.2
20260901004545 28 150 0.0 4.8 0.00 0.00 0.00 72 1016.1
20260901003042 29 151 1.6 8.0 0.00 0.00 0.00 72 1016.1
20260901001547 29 163 3.2 11.3 0.00 0.00 0.00 71 1016.0
20260901000056 29 118 0.0 9.7 0.00 0.00 0.00 70 1016.1
20260831234555 30 97 1.6 6.4 0.00 0.00 0.00 70 1016.0
20260831233058 30 109 0.0 0.0 0.00 0.00 0.00 70 1016.1
20260831231553 30 90 0.0 0.0 0.00 0.00 0.00 70 1016.2
20260831230050 30 74 3.2 8.0 0.00 0.00 0.00 70 1016.3
20260831224550 30 92 0.0 11.3 0.00 0.00 0.00 71 1016.3
20260831223050 30 26 4.8 8.0 0.00 0.00 0.00 72 1016.3
20260831221541 30 19 4.8 8.0 0.00 0.00 0.00 70 1016.2
20260831220053 30 22 3.2 9.7 0.00 0.00 0.00 69 1016.5
20260831214550 30 56 4.8 9.7 0.00 0.00 0.00 68 1016.4
20260831213048 31 331 3.2 9.7 0.00 0.00 0.00 67 1016.2
20260831211542 31 319 4.8 9.7 0.00 0.00 0.00 67 1016.2
20260831210052 31 5 0.0 8.0 0.00 0.00 0.00 66 1016.3
20260831204550 31 28 6.4 9.7 0.00 0.00 0.00 64 1016.5
20260831203105 31 49 3.2 6.4 0.00 0.00 0.00 64 1016.5
20260831201550 31 352 1.6 8.0 0.00 0.00 0.00 65 1016.4
20260831200136 31 44 3.2 16.1 0.00 0.00 0.00 65 1016.7
20260831194556 31 55 3.2 9.7 0.00 0.00 0.00 66 1016.7
20260831193048 31 24 3.2 8.0 0.00 0.00 0.00 66 1016.8
20260831191556 31 23 3.2 8.0 0.00 0.00 0.00 65 1017.0
20260831190053 31 24 6.4 12.9 0.00 0.00 0.00 64 1016.9
20260831184552 31 34 4.8 11.3 0.00 0.00 0.00 63 1016.9
20260831183048 31 290 1.6 8.0 0.00 0.00 0.00 63 1016.9
20260831181552 31 112 8.0 12.9 0.00 0.00 0.00 62 1017.2
20260831180116 31 272 4.8 11.3 0.00 0.00 0.00 63 1017.5
20260831174551 31 160 8.0 16.1 0.00 0.00 0.00 64 1017.3
20260831173106 30 126 1.6 8.0 0.00 0.00 0.00 66 1017.5
20260831171554 31 85 3.2 12.9 0.00 0.00 0.00 66 1017.9
20260831170111 30 35 4.8 11.3 0.00 0.00 0.00 66 1017.7
20260831164547 30 57 0.0 11.3 0.00 0.00 0.00 67 1018.3
20260831163054 30 65 4.8 11.3 0.00 0.00 0.00 67 1018.4
20260831161554 30 355 0.0 12.9 0.00 0.00 0.00 69 1018.3
20260831160055 30 80 6.4 12.9 0.00 0.00 0.00 69 1018.2
20260831154621 28 37 6.4 14.5 0.00 0.00 0.00 71 1018.0
20260831153058 28 326 6.4 16.1 0.00 0.00 0.00 72 1018.0
20260831151552 28 52 3.2 9.7 0.00 0.00 0.00 72 1017.9
20260831150051 28 35 6.4 14.5 0.00 0.00 0.00 73 1017.9
20260831144535 28 51 6.4 14.5 0.00 0.00 0.00 76 1017.9
20260831143040 27 112 1.6 12.9 0.00 0.00 0.00 76 1017.7
20260831141539 27 55 3.2 9.7 0.00 0.00 0.00 78 1017.8
20260831140038 27 44 3.2 8.0 0.00 0.00 0.00 79 1017.7
20260831134539 26 360 4.8 12.9 0.00 0.00 0.00 81 1017.8
20260831133034 25 103 1.6 6.4 0.00 0.00 0.00 82 1017.7
20260831131535 25 316 0.0 9.7 0.00 0.00 0.00 86 1017.6
20260831130033 24 324 3.2 8.0 0.00 0.00 0.00 89 1017.8
20260831124538 23 340 0.0 4.8 0.00 0.00 0.00 91 1018.0
20260831123037 23 297 0.0 6.4 0.00 0.00 0.00 92 1017.8
20260831121537 22 5 1.6 12.9 0.00 0.00 0.00 93 1017.4
20260831120037 22 313 1.6 8.0 0.00 0.00 0.00 93 1017.3
20260831114538 22 308 1.6 6.4 0.00 0.00 0.00 93 1017.4
20260831113047 22 286 3.2 6.4 0.00 0.00 0.00 93 1017.2
20260831111534 22 299 0.0 4.8 0.00 0.00 0.00 93 1017.0